Home   Weather   Bjelovar   Past weeks
Flag for Croatia

Past Weather in Bjelovar, Croatia — Yesterday and Last 2 Weeks

Now
81 °F

Partly sunny.


Feels Like: 83 °F
Forecast: 83 / 65 °F
Wind: 2 mph from Northeast

Location: Bjelovar

Current Time: Aug 25, 2019 at 3:31:31 pm

Latest Report: Aug 25, 2019 at 2:00 pm


Visibility: 6 mi

Pressure: 30.09 "Hg

Humidity: 60%

Dew Point: 66 °F

Location of BjelovarLocation

Past Weather in Bjelovar — Graph

°F

Bjelovar Temperature Yesterday

Maximum temperature yesterday: 85 °F (at 6:00 pm)
Minimum temperature yesterday: 69 °F (at 6:00 am)
Average temperature yesterday: 77 °F

High & Low Weather Summary for the Past Weeks

 TemperatureHumidityPressure
High94 °F (Aug 12, 4:00 pm)95% (Aug 17, 6:00 am)30.27 "Hg (Aug 17, 6:00 am)
Low54 °F (Aug 15, 6:00 am)35% (Aug 15, 4:00 pm)29.83 "Hg (Aug 12, 7:00 pm)
Average74 °F66%30.05 "Hg
* Reported Aug 10 2:00 pm — Aug 25 2:00 pm, Bjelovar. Weather by CustomWeather, © 2019

Note: Actual official high and low records may vary slightly from our data, if they occured in-between our weather recording intervals... More about our weather records

Advertising

Bjelovar Weather History for the Previous 24 Hours

Scroll right to see more
 ConditionsComfort  
Time TempWeatherWind HumidityBarometerVisibility
2:00 pm
Sun, Aug 25
81 °FPartly sunny.2 mph60%30.09 "Hg6 mi
1:00 pm79 °FPartly sunny.1 mph65%30.10 "Hg6 mi
12:00 pm77 °FPartly sunny.2 mph66%30.10 "Hg6 mi
11:00 am75 °FPartly sunny.1 mph71%30.11 "Hg6 mi
10:00 am72 °FPartly sunny.2 mph76%30.12 "Hg6 mi
9:00 am70 °FPartly sunny.1 mph81%30.11 "Hg6 mi
8:00 am68 °FPartly sunny.No wind85%30.10 "Hg6 mi
7:00 am67 °FMild.1 mph83%30.10 "HgN/A
6:00 am67 °FMild.1 mph81%30.11 "HgN/A
5:00 am67 °FMild.No wind80%30.10 "HgN/A
2:00 am70 °FMild.2 mph71%30.11 "HgN/A
11:00 pm
Sat, Aug 24
73 °FMild.5 mph75%30.12 "HgN/A
10:00 pm75 °FOvercast.1 mph89%30.09 "Hg6 mi
9:00 pm76 °FPassing clouds.1 mph87%30.08 "Hg6 mi
8:00 pm79 °FPassing clouds.No wind76%30.06 "Hg6 mi
7:00 pm82 °FWarm.No wind68%30.07 "HgN/A
6:00 pm85 °FWarm.1 mph61%30.07 "HgN/A
5:00 pm84 °FWarm.1 mph61%30.08 "HgN/A
4:00 pm84 °FWarm.1 mph61%30.08 "HgN/A
3:00 pm82 °FPartly sunny.2 mph66%30.09 "Hg6 mi
Weather by CustomWeather, © 2019

See weather overview